sat.trackr.live / text

‹ back to catalog

STARLINK-2654

NORAD 48454 · 2021-040AC

PAYLOAD ACTIVE UNKNOWN

§ Identity

Operator
Country
US
Launch date
2021-05-09
Launch site
AFETR
Launch vehicle
Mass (kg)
RCS (m²)

Purposes: comms

External: N2YO · Heavens-Above · Gunter

§ Orbital elements

Epoch: 2026-09-19T21:28:13.896192Z

Period
94.01 min
Inclination
53.1605°
Eccentricity
0.0001591
Mean motion
15.31694764 rev/d
Perigee alt
469.7 km
Apogee alt
471.8 km
Semi-major
6,848.9 km
B*
5.6824e-5
RAAN
354.2965°
Arg perigee
52.9591°
Mean anomaly
307.1555°
Rev number
29,644

§ Raw data

STARLINK-26541 48454U 21040AC  26262.89460528  .00001398  00000+0  56824-4 0  99912 48454  53.1605 354.2965 0001591  52.9591 307.1555 15.31694764296445

JSON: /api/v1/satellites/48454 · /tle

For live sub-satellite position, see the globe view (requires WebGL).

§ Visibility from observer

Set your observer location to see the next 7 days of passes ≥ 10°. The values pass through the URL so the page stays shareable.

No JS? Fill the form by hand. The geolocation button needs JavaScript.